Starlink 32473

operational
NORAD ID: 62049 Int'l Des: 2024-216 Owner: SPXS Country: US Constellation: starlink
LEOCIRCULAR

About Starlink 32473

Description loading...

Live Position

Loading 3D Globe...

Upcoming Passes

Altitude History

Altitude vs Time

uPlot chart will show altitude changes over time

Two-Line Element Set

1 62049U 24216T 26048.21558462 .00027361 00000-0 99993-3 0 9990
2 62049 43.0037 12.0143 0001796 247.5565 112.5097 15.27585591 69589
Epoch: Feb 17, 2026 • Age: 19 hours

Current Status

Altitude 485.2 km
Velocity 7.63 km/s
Sub-Earth Point 35.47°N, 18.02°W
Launch Date Nov 21, 2024
Age 1.2 years
Type internet

Technical Details

Classification Payload
Mass 730.00 kg
Dry Mass 700.00 kg
Total Mass 730.00 kg
Length 0.30 m
Diameter 4.10 m
Span 29.00 m
Shape Box + pan
Manufacturer SPXS
Bus Type Starlink V2M
Phase Status In Orbit
Owner/State SPXS/US

Large Constellations

Loading constellations...